FREQUENCY,Transmission
 1495000000 ,-040.922
 1495200000 ,-040.949
 1495400000 ,-040.982
 1495600000 ,-041.018
 1495800000 ,-041.055
 1496000000 ,-041.098
 1496200000 ,-041.145
 1496400000 ,-041.195
 1496600000 ,-041.254
 1496800000 ,-041.314
 1497000000 ,-041.381
 1497200000 ,-041.441
 1497400000 ,-041.508
 1497600000 ,-041.576
 1497800000 ,-041.637
 1498000000 ,-041.699
 1498200000 ,-041.756
 1498400000 ,-041.816
 1498600000 ,-041.869
 1498800000 ,-041.924
 1499000000 ,-041.979
 1499200000 ,-042.031
 1499400000 ,-042.084
 1499600000 ,-042.139
 1499800000 ,-042.193
 1500000000 ,-042.242
 1500200000 ,-042.297
 1500400000 ,-042.350
 1500600000 ,-042.414
 1500800000 ,-042.479
 1501000000 ,-042.549
 1501200000 ,-042.623
 1501400000 ,-042.699
 1501600000 ,-042.775
 1501800000 ,-042.855
 1502000000 ,-042.934
 1502200000 ,-043.010
 1502400000 ,-043.088
 1502600000 ,-043.162
 1502800000 ,-043.230
 1503000000 ,-043.295
 1503200000 ,-043.355
 1503400000 ,-043.412
 1503600000 ,-043.461
 1503800000 ,-043.506
 1504000000 ,-043.541
 1504200000 ,-043.572
 1504400000 ,-043.600
 1504600000 ,-043.625
 1504800000 ,-043.643
 1505000000 ,-043.662
 1505200000 ,-043.682
 1505400000 ,-043.703
 1505600000 ,-043.725
 1505800000 ,-043.750
 1506000000 ,-043.783
 1506200000 ,-043.820
 1506400000 ,-043.863
 1506600000 ,-043.916
 1506800000 ,-043.982
 1507000000 ,-044.049
 1507200000 ,-044.123
 1507400000 ,-044.215
 1507600000 ,-044.314
 1507800000 ,-044.416
 1508000000 ,-044.527
 1508200000 ,-044.648
 1508400000 ,-044.770
 1508600000 ,-044.895
 1508800000 ,-045.029
 1509000000 ,-045.164
 1509200000 ,-045.295
 1509400000 ,-045.424
 1509600000 ,-045.555
 1509800000 ,-045.678
 1510000000 ,-045.795
 1510200000 ,-045.902
 1510400000 ,-046.006
 1510600000 ,-046.105
 1510800000 ,-046.189
 1511000000 ,-046.254
 1511200000 ,-046.318
 1511400000 ,-046.377
 1511600000 ,-046.424
 1511800000 ,-046.475
 1512000000 ,-046.527
 1512200000 ,-046.576
 1512400000 ,-046.617
 1512600000 ,-046.668
 1512800000 ,-046.715
 1513000000 ,-046.752
 1513200000 ,-046.787
 1513400000 ,-046.818
 1513600000 ,-046.828
 1513800000 ,-046.824
 1514000000 ,-046.803
 1514200000 ,-046.752
 1514400000 ,-046.678
 1514600000 ,-046.572
 1514800000 ,-046.434
 1515000000 ,-046.266
 1515200000 ,-046.063
 1515400000 ,-045.818
 1515600000 ,-045.547
 1515800000 ,-045.254
 1516000000 ,-044.938
 1516200000 ,-044.613
 1516400000 ,-044.287
 1516600000 ,-043.967
 1516800000 ,-043.654
 1517000000 ,-043.373
 1517200000 ,-043.117
 1517400000 ,-042.889
 1517600000 ,-042.705
 1517800000 ,-042.574
 1518000000 ,-042.494
 1518200000 ,-042.459
 1518400000 ,-042.475
 1518600000 ,-042.537
 1518800000 ,-042.652
 1519000000 ,-042.805
 1519200000 ,-043.002
 1519400000 ,-043.242
 1519600000 ,-043.506
 1519800000 ,-043.789
 1520000000 ,-044.078
 1520200000 ,-044.377
 1520400000 ,-044.670
 1520600000 ,-044.965
 1520800000 ,-045.254
 1521000000 ,-045.529
 1521200000 ,-045.789
 1521400000 ,-046.023
 1521600000 ,-046.236
 1521800000 ,-046.424
 1522000000 ,-046.607
 1522200000 ,-046.766
 1522400000 ,-046.916
 1522600000 ,-047.055
 1522800000 ,-047.193
 1523000000 ,-047.348
 1523200000 ,-047.533
 1523400000 ,-047.754
 1523600000 ,-048.027
 1523800000 ,-048.354
 1524000000 ,-048.732
 1524200000 ,-049.164
 1524400000 ,-049.684
 1524600000 ,-050.236
 1524800000 ,-050.826
 1525000000 ,-051.422
 1525200000 ,-052.012
 1525400000 ,-052.557
 1525600000 ,-053.100
 1525800000 ,-053.604
 1526000000 ,-054.031
 1526200000 ,-054.381
 1526400000 ,-054.674
 1526600000 ,-054.875
 1526800000 ,-054.984
 1527000000 ,-054.959
 1527200000 ,-054.836
 1527400000 ,-054.596
 1527600000 ,-054.268
 1527800000 ,-053.822
 1528000000 ,-053.316
 1528200000 ,-052.779
 1528400000 ,-052.244
 1528600000 ,-051.742
 1528800000 ,-051.297
 1529000000 ,-050.869
 1529200000 ,-050.484
 1529400000 ,-050.156
 1529600000 ,-049.846
 1529800000 ,-049.512
 1530000000 ,-049.164
 1530200000 ,-048.799
 1530400000 ,-048.439
 1530600000 ,-048.063
 1530800000 ,-047.691
 1531000000 ,-047.309
 1531200000 ,-046.906
 1531400000 ,-046.480
 1531600000 ,-046.021
 1531800000 ,-045.527
 1532000000 ,-044.990
 1532200000 ,-044.410
 1532400000 ,-043.803
 1532600000 ,-043.168
 1532800000 ,-042.516
 1533000000 ,-041.871
 1533200000 ,-041.246
 1533400000 ,-040.658
 1533600000 ,-040.105
 1533800000 ,-039.586
 1534000000 ,-039.092
 1534200000 ,-038.613
 1534400000 ,-038.141
 1534600000 ,-037.682
 1534800000 ,-037.244
 1535000000 ,-036.822
 1535200000 ,-036.418
 1535400000 ,-036.035
 1535600000 ,-035.674
 1535800000 ,-035.322
 1536000000 ,-034.977
 1536200000 ,-034.629
 1536400000 ,-034.271
 1536600000 ,-033.906
 1536800000 ,-033.535
 1537000000 ,-033.166
 1537200000 ,-032.797
 1537400000 ,-032.439
 1537600000 ,-032.096
 1537800000 ,-031.771
 1538000000 ,-031.473
 1538200000 ,-031.199
 1538400000 ,-030.952
 1538600000 ,-030.730
 1538800000 ,-030.530
 1539000000 ,-030.351
 1539200000 ,-030.197
 1539400000 ,-030.080
 1539600000 ,-030.020
 1539800000 ,-030.034
 1540000000 ,-030.129
 1540200000 ,-030.301
 1540400000 ,-030.535
 1540600000 ,-030.801
 1540800000 ,-031.059
 1541000000 ,-031.285
 1541200000 ,-031.463
 1541400000 ,-031.587
 1541600000 ,-031.655
 1541800000 ,-031.672
 1542000000 ,-031.640
 1542200000 ,-031.565
 1542400000 ,-031.452
 1542600000 ,-031.306
 1542800000 ,-031.127
 1543000000 ,-030.915
 1543200000 ,-030.659
 1543400000 ,-030.355
 1543600000 ,-029.994
 1543800000 ,-029.577
 1544000000 ,-029.123
 1544200000 ,-028.657
 1544400000 ,-028.198
 1544600000 ,-027.752
 1544800000 ,-027.317
 1545000000 ,-026.889
 1545200000 ,-026.457
 1545400000 ,-026.011
 1545600000 ,-025.542
 1545800000 ,-025.042
 1546000000 ,-024.505
 1546200000 ,-023.929
 1546400000 ,-023.311
 1546600000 ,-022.652
 1546800000 ,-021.959
 1547000000 ,-021.237
 1547200000 ,-020.503
 1547400000 ,-019.767
 1547600000 ,-019.037
 1547800000 ,-018.322
 1548000000 ,-017.623
 1548200000 ,-016.940
 1548400000 ,-016.274
 1548600000 ,-015.622
 1548800000 ,-014.982
 1549000000 ,-014.356
 1549200000 ,-013.744
 1549400000 ,-013.147
 1549600000 ,-012.567
 1549800000 ,-012.004
 1550000000 ,-011.461
 1550200000 ,-010.933
 1550400000 ,-010.423
 1550600000 ,-009.930
 1550800000 ,-009.453
 1551000000 ,-008.992
 1551200000 ,-008.546
 1551400000 ,-008.119
 1551600000 ,-007.709
 1551800000 ,-007.321
 1552000000 ,-006.955
 1552200000 ,-006.613
 1552400000 ,-006.295
 1552600000 ,-006.001
 1552800000 ,-005.732
 1553000000 ,-005.485
 1553200000 ,-005.259
 1553400000 ,-005.053
 1553600000 ,-004.865
 1553800000 ,-004.694
 1554000000 ,-004.538
 1554200000 ,-004.395
 1554400000 ,-004.264
 1554600000 ,-004.145
 1554800000 ,-004.035
 1555000000 ,-003.935
 1555200000 ,-003.844
 1555400000 ,-003.760
 1555600000 ,-003.683
 1555800000 ,-003.612
 1556000000 ,-003.547
 1556200000 ,-003.483
 1556400000 ,-003.423
 1556600000 ,-003.367
 1556800000 ,-003.313
 1557000000 ,-003.261
 1557200000 ,-003.212
 1557400000 ,-003.164
 1557600000 ,-003.119
 1557800000 ,-003.075
 1558000000 ,-003.032
 1558200000 ,-002.991
 1558400000 ,-002.952
 1558600000 ,-002.913
 1558800000 ,-002.877
 1559000000 ,-002.842
 1559200000 ,-002.809
 1559400000 ,-002.777
 1559600000 ,-002.749
 1559800000 ,-002.723
 1560000000 ,-002.698
 1560200000 ,-002.674
 1560400000 ,-002.652
 1560600000 ,-002.630
 1560800000 ,-002.610
 1561000000 ,-002.590
 1561200000 ,-002.570
 1561400000 ,-002.552
 1561600000 ,-002.535
 1561800000 ,-002.518
 1562000000 ,-002.501
 1562200000 ,-002.486
 1562400000 ,-002.470
 1562600000 ,-002.456
 1562800000 ,-002.443
 1563000000 ,-002.430
 1563200000 ,-002.418
 1563400000 ,-002.407
 1563600000 ,-002.397
 1563800000 ,-002.387
 1564000000 ,-002.378
 1564200000 ,-002.371
 1564400000 ,-002.364
 1564600000 ,-002.357
 1564800000 ,-002.351
 1565000000 ,-002.344
 1565200000 ,-002.339
 1565400000 ,-002.334
 1565600000 ,-002.329
 1565800000 ,-002.325
 1566000000 ,-002.320
 1566200000 ,-002.316
 1566400000 ,-002.312
 1566600000 ,-002.308
 1566800000 ,-002.304
 1567000000 ,-002.300
 1567200000 ,-002.297
 1567400000 ,-002.293
 1567600000 ,-002.289
 1567800000 ,-002.286
 1568000000 ,-002.284
 1568200000 ,-002.281
 1568400000 ,-002.280
 1568600000 ,-002.278
 1568800000 ,-002.277
 1569000000 ,-002.276
 1569200000 ,-002.275
 1569400000 ,-002.275
 1569600000 ,-002.274
 1569800000 ,-002.273
 1570000000 ,-002.273
 1570200000 ,-002.273
 1570400000 ,-002.272
 1570600000 ,-002.272
 1570800000 ,-002.272
 1571000000 ,-002.272
 1571200000 ,-002.273
 1571400000 ,-002.274
 1571600000 ,-002.274
 1571800000 ,-002.276
 1572000000 ,-002.276
 1572200000 ,-002.278
 1572400000 ,-002.279
 1572600000 ,-002.280
 1572800000 ,-002.280
 1573000000 ,-002.281
 1573200000 ,-002.281
 1573400000 ,-002.281
 1573600000 ,-002.281
 1573800000 ,-002.281
 1574000000 ,-002.281
 1574200000 ,-002.280
 1574400000 ,-002.279
 1574600000 ,-002.277
 1574800000 ,-002.275
 1575000000 ,-002.272
 1575200000 ,-002.269
 1575400000 ,-002.267
 1575600000 ,-002.264
 1575800000 ,-002.260
 1576000000 ,-002.257
 1576200000 ,-002.255
 1576400000 ,-002.252
 1576600000 ,-002.250
 1576800000 ,-002.248
 1577000000 ,-002.246
 1577200000 ,-002.244
 1577400000 ,-002.242
 1577600000 ,-002.242
 1577800000 ,-002.241
 1578000000 ,-002.241
 1578200000 ,-002.242
 1578400000 ,-002.243
 1578600000 ,-002.244
 1578800000 ,-002.245
 1579000000 ,-002.247
 1579200000 ,-002.249
 1579400000 ,-002.253
 1579600000 ,-002.256
 1579800000 ,-002.261
 1580000000 ,-002.267
 1580200000 ,-002.273
 1580400000 ,-002.281
 1580600000 ,-002.289
 1580800000 ,-002.299
 1581000000 ,-002.309
 1581200000 ,-002.320
 1581400000 ,-002.333
 1581600000 ,-002.346
 1581800000 ,-002.360
 1582000000 ,-002.376
 1582200000 ,-002.392
 1582400000 ,-002.410
 1582600000 ,-002.429
 1582800000 ,-002.449
 1583000000 ,-002.471
 1583200000 ,-002.494
 1583400000 ,-002.519
 1583600000 ,-002.545
 1583800000 ,-002.571
 1584000000 ,-002.599
 1584200000 ,-002.629
 1584400000 ,-002.660
 1584600000 ,-002.693
 1584800000 ,-002.726
 1585000000 ,-002.761
 1585200000 ,-002.798
 1585400000 ,-002.836
 1585600000 ,-002.875
 1585800000 ,-002.915
 1586000000 ,-002.958
 1586200000 ,-003.001
 1586400000 ,-003.045
 1586600000 ,-003.090
 1586800000 ,-003.137
 1587000000 ,-003.183
 1587200000 ,-003.231
 1587400000 ,-003.280
 1587600000 ,-003.328
 1587800000 ,-003.378
 1588000000 ,-003.426
 1588200000 ,-003.475
 1588400000 ,-003.523
 1588600000 ,-003.570
 1588800000 ,-003.617
 1589000000 ,-003.662
 1589200000 ,-003.705
 1589400000 ,-003.748
 1589600000 ,-003.788
 1589800000 ,-003.827
 1590000000 ,-003.865
 1590200000 ,-003.900
 1590400000 ,-003.935
 1590600000 ,-003.968
 1590800000 ,-003.999
 1591000000 ,-004.029
 1591200000 ,-004.058
 1591400000 ,-004.086
 1591600000 ,-004.113
 1591800000 ,-004.140
 1592000000 ,-004.167
 1592200000 ,-004.194
 1592400000 ,-004.221
 1592600000 ,-004.250
 1592800000 ,-004.278
 1593000000 ,-004.307
 1593200000 ,-004.338
 1593400000 ,-004.371
 1593600000 ,-004.405
 1593800000 ,-004.441
 1594000000 ,-004.478
 1594200000 ,-004.517
 1594400000 ,-004.558
 1594600000 ,-004.601
 1594800000 ,-004.644
 1595000000 ,-004.689
 1595200000 ,-004.737
 1595400000 ,-004.786
 1595600000 ,-004.838
 1595800000 ,-004.892
 1596000000 ,-004.948
 1596200000 ,-005.005
 1596400000 ,-005.066
 1596600000 ,-005.128
 1596800000 ,-005.193
 1597000000 ,-005.261
 1597200000 ,-005.333
 1597400000 ,-005.407
 1597600000 ,-005.486
 1597800000 ,-005.569
 1598000000 ,-005.656
 1598200000 ,-005.751
 1598400000 ,-005.851
 1598600000 ,-005.957
 1598800000 ,-006.069
 1599000000 ,-006.187
 1599200000 ,-006.311
 1599400000 ,-006.442
 1599600000 ,-006.579
 1599800000 ,-006.724
 1600000000 ,-006.874
 1600200000 ,-007.030
 1600400000 ,-007.193
 1600600000 ,-007.364
 1600800000 ,-007.541
 1601000000 ,-007.726
 1601200000 ,-007.917
 1601400000 ,-008.115
 1601600000 ,-008.320
 1601800000 ,-008.531
 1602000000 ,-008.750
 1602200000 ,-008.976
 1602400000 ,-009.210
 1602600000 ,-009.451
 1602800000 ,-009.698
 1603000000 ,-009.954
 1603200000 ,-010.216
 1603400000 ,-010.486
 1603600000 ,-010.763
 1603800000 ,-011.047
 1604000000 ,-011.337
 1604200000 ,-011.634
 1604400000 ,-011.937
 1604600000 ,-012.246
 1604800000 ,-012.560
 1605000000 ,-012.879
 1605200000 ,-013.206
 1605400000 ,-013.536
 1605600000 ,-013.871
 1605800000 ,-014.211
 1606000000 ,-014.555
 1606200000 ,-014.903
 1606400000 ,-015.255
 1606600000 ,-015.611
 1606800000 ,-015.973
 1607000000 ,-016.338
 1607200000 ,-016.706
 1607400000 ,-017.079
 1607600000 ,-017.457
 1607800000 ,-017.841
 1608000000 ,-018.231
 1608200000 ,-018.627
 1608400000 ,-019.028
 1608600000 ,-019.434
 1608800000 ,-019.846
 1609000000 ,-020.264
 1609200000 ,-020.688
 1609400000 ,-021.118
 1609600000 ,-021.556
 1609800000 ,-022.000
 1610000000 ,-022.454
 1610200000 ,-022.917
 1610400000 ,-023.387
 1610600000 ,-023.865
 1610800000 ,-024.348
 1611000000 ,-024.837
 1611200000 ,-025.330
 1611400000 ,-025.825
 1611600000 ,-026.323
 1611800000 ,-026.823
 1612000000 ,-027.326
 1612200000 ,-027.832
 1612400000 ,-028.340
 1612600000 ,-028.846
 1612800000 ,-029.353
 1613000000 ,-029.862
 1613200000 ,-030.375
 1613400000 ,-030.888
 1613600000 ,-031.405
 1613800000 ,-031.929
 1614000000 ,-032.465
 1614200000 ,-033.008
 1614400000 ,-033.557
 1614600000 ,-034.119
 1614800000 ,-034.691
 1615000000 ,-035.283
 1615200000 ,-035.889
 1615400000 ,-036.502
 1615600000 ,-037.127
 1615800000 ,-037.756
 1616000000 ,-038.389
 1616200000 ,-039.023
 1616400000 ,-039.648
 1616600000 ,-040.264
 1616800000 ,-040.875
 1617000000 ,-041.469
 1617200000 ,-042.041
 1617400000 ,-042.586
 1617600000 ,-043.111
 1617800000 ,-043.602
 1618000000 ,-044.055
 1618200000 ,-044.465
 1618400000 ,-044.830
 1618600000 ,-045.145
 1618800000 ,-045.418
 1619000000 ,-045.650
 1619200000 ,-045.855
 1619400000 ,-046.027
 1619600000 ,-046.170
 1619800000 ,-046.287
 1620000000 ,-046.387
 1620200000 ,-046.449
 1620400000 ,-046.492
 1620600000 ,-046.514
 1620800000 ,-046.523
 1621000000 ,-046.516
 1621200000 ,-046.502
 1621400000 ,-046.479
 1621600000 ,-046.459
 1621800000 ,-046.434
 1622000000 ,-046.418
 1622200000 ,-046.404
 1622400000 ,-046.387
 1622600000 ,-046.359
 1622800000 ,-046.330
 1623000000 ,-046.305
 1623200000 ,-046.275
 1623400000 ,-046.234
 1623600000 ,-046.209
 1623800000 ,-046.180
 1624000000 ,-046.162
 1624200000 ,-046.123
 1624400000 ,-046.092
 1624600000 ,-046.061
 1624800000 ,-046.039
 1625000000 ,-046.006
 1625200000 ,-045.975
 1625400000 ,-045.934
 1625600000 ,-045.893
 1625800000 ,-045.854
 1626000000 ,-045.814
 1626200000 ,-045.775
 1626400000 ,-045.727
 1626600000 ,-045.672
 1626800000 ,-045.625
 1627000000 ,-045.568
 1627200000 ,-045.514
 1627400000 ,-045.453
 1627600000 ,-045.412
 1627800000 ,-045.361
 1628000000 ,-045.313
 1628200000 ,-045.264
 1628400000 ,-045.223
 1628600000 ,-045.182
 1628800000 ,-045.146
 1629000000 ,-045.109
 1629200000 ,-045.074
 1629400000 ,-045.043
 1629600000 ,-045.020
 1629800000 ,-045.000
 1630000000 ,-044.996
 1630200000 ,-044.992
 1630400000 ,-044.988
 1630600000 ,-044.998
 1630800000 ,-045.006
 1631000000 ,-045.018
 1631200000 ,-045.037
 1631400000 ,-045.051
 1631600000 ,-045.066
 1631800000 ,-045.080
 1632000000 ,-045.100
 1632200000 ,-045.117
 1632400000 ,-045.137
 1632600000 ,-045.154
 1632800000 ,-045.172
 1633000000 ,-045.182
 1633200000 ,-045.189
 1633400000 ,-045.191
 1633600000 ,-045.199
 1633800000 ,-045.203
 1634000000 ,-045.199
 1634200000 ,-045.199
 1634400000 ,-045.195
 1634600000 ,-045.180
 1634800000 ,-045.168
 1635000000 ,-045.152
 1635200000 ,-045.143
 1635400000 ,-045.125
 1635600000 ,-045.117
 1635800000 ,-045.102
 1636000000 ,-045.090
 1636200000 ,-045.086
 1636400000 ,-045.078
 1636600000 ,-045.074
 1636800000 ,-045.068
 1637000000 ,-045.057
 1637200000 ,-045.041
 1637400000 ,-045.029
 1637600000 ,-045.012
 1637800000 ,-044.988
 1638000000 ,-044.971
 1638200000 ,-044.947
 1638400000 ,-044.918
 1638600000 ,-044.893
 1638800000 ,-044.863
 1639000000 ,-044.828
 1639200000 ,-044.803
 1639400000 ,-044.773
 1639600000 ,-044.736
 1639800000 ,-044.707
 1640000000 ,-044.672
 1640200000 ,-044.635
 1640400000 ,-044.600
 1640600000 ,-044.568
 1640800000 ,-044.531
 1641000000 ,-044.494
 1641200000 ,-044.457
 1641400000 ,-044.424
 1641600000 ,-044.389
 1641800000 ,-044.363
 1642000000 ,-044.328
 1642200000 ,-044.299
 1642400000 ,-044.260
 1642600000 ,-044.221
 1642800000 ,-044.184
 1643000000 ,-044.145
 1643200000 ,-044.100
 1643400000 ,-044.059
 1643600000 ,-044.020
 1643800000 ,-043.980
 1644000000 ,-043.941
 1644200000 ,-043.896
 1644400000 ,-043.857
 1644600000 ,-043.816
 1644800000 ,-043.775
 1645000000 ,-043.734
 1645200000 ,-043.688
 1645400000 ,-043.643
 1645600000 ,-043.592
 1645800000 ,-043.545
 1646000000 ,-043.490
 1646200000 ,-043.432
 1646400000 ,-043.367
 1646600000 ,-043.307
 1646800000 ,-043.238
 1647000000 ,-043.168
 1647200000 ,-043.090
 1647400000 ,-043.012
 1647600000 ,-042.924
 1647800000 ,-042.834
 1648000000 ,-042.738
 1648200000 ,-042.635
 1648400000 ,-042.523
 1648600000 ,-042.408
 1648800000 ,-042.285
 1649000000 ,-042.160
 1649200000 ,-042.033
 1649400000 ,-041.900
 1649600000 ,-041.762
 1649800000 ,-041.617
 1650000000 ,-041.463
 1650200000 ,-041.307
 1650400000 ,-041.143
 1650600000 ,-040.979
 1650800000 ,-040.805
 1651000000 ,-040.633
 1651200000 ,-040.455
 1651400000 ,-040.275
 1651600000 ,-040.094
 1651800000 ,-039.914
 1652000000 ,-039.730
 1652200000 ,-039.545
 1652400000 ,-039.359
 1652600000 ,-039.166
 1652800000 ,-038.975
 1653000000 ,-038.777
 1653200000 ,-038.584
 1653400000 ,-038.395
 1653600000 ,-038.215
 1653800000 ,-038.047
 1654000000 ,-037.891
 1654200000 ,-037.746
 1654400000 ,-037.613
 1654600000 ,-037.490
 1654800000 ,-037.379
